Location: Caltech
(34.1382°N, 118.1253°W)
Time: 03:12:04
(UTC-07:00)

SO-50 - Visible Passes

Search period start: 25 October 2014 00:00
Search period end: 03 November 2014 23:00
Orbit: 604 x 692 km, 64.6° (Epoch: 24 October)

Date Brightness Start Highest point End Pass type
(mag) Time Alt. Az. Time Alt. Az. Time Alt. Az.
29 Oct ? 20:09:47 10° N 20:10:28 13° N 20:10:28 13° N visible
30 Oct ? 20:35:52 10° NNW 20:36:49 16° NNW 20:36:49 16° NNW visible
31 Oct ? 19:22:50 10° N 19:25:31 20° NNE 19:25:31 20° NNE visible
31 Oct ? 21:02:39 10° NW 21:03:18 14° NW 21:03:18 14° NW visible
01 Nov ? 19:48:39 10° NNW 19:52:11 41° NNE 19:52:11 41° NNE visible
02 Nov ? 17:36:04 10° N 17:39:01 16° NE 17:41:19 12° ENE visible
02 Nov ? 19:15:09 10° NW 19:19:07 52° WNW 19:19:07 52° WNW visible
03 Nov ? 18:01:29 10° NNW 18:05:58 36° NE 18:08:37 21° ESE visible
03 Nov ? 19:42:31 10° WNW 19:46:18 23° WSW 19:46:27 23° WSW visible
